Starlink 4594

operational
NORAD ID: 53638 Int'l Des: 2022-104 Owner: SPXS Country: US Constellation: starlink
LEOCIRCULAR

Über Starlink 4594

Beschreibung wird geladen...

Live-Position

3D-Globus wird geladen...

Nächste Überflüge

Höhenverlauf

Altitude vs Time

uPlot chart will show altitude changes over time

Zweizeiliger Elementsatz

1 53638U 22104BC 25305.73471872 -.00003439 00000-0 -19827-3 0 9999
2 53638 53.2174 78.1632 0001716 81.3805 278.7381 15.08808451176916
Epoch: 1. Nov. 2025 • Age: 51 hours

Aktueller Status

Höhe 549.8 km
Geschwindigkeit 7.59 km/s
Subsatellitenpunkt -30.09°S, 54.77°E
Startdatum 28. Aug. 2022
Alter 3.1 years
Typ internet

Technische Details

Klassifizierung Payload
Masse 300.00 kg
Trockenmasse 290.00 kg
Gesamtmasse 300.00 kg
Länge 0.20 m
Durchmesser 2.80 m
Spannweite 9.00 m
Form Box + pan
Hersteller SPXS
Bus-Typ Starlink
Phasenstatus In Orbit
Besitzer/Staat SPXS/US

Große Konstellationen

Loading constellations...